| time (UTC) | temp F | wind direction | speed MPH | gust MPH | rain 1hr in | rain 24hr in | rain mn in | humidity % | barometer mb |
| 20260502210025 | 77 | 340 | 0.0 | 0.0 | 0.00 | 0.51 | 0.00 | 43 | 1017.2 |
| 20260502204523 | 76 | 289 | 0.0 | 0.0 | 0.00 | 0.65 | 0.00 | 45 | 1017.4 |
| 20260502203021 | 77 | 38 | 0.0 | 0.0 | 0.00 | 0.65 | 0.00 | 44 | 1017.4 |
| 20260502201519 | 77 | 319 | 0.0 | 0.0 | 0.00 | 0.65 | 0.00 | 43 | 1017.6 |
| 20260502200017 | 77 | 11 | 0.0 | 0.0 | 0.00 | 0.65 | 0.00 | 44 | 1017.7 |
| 20260502194516 | 76 | 17 | 0.0 | 0.0 | 0.00 | 0.69 | 0.00 | 46 | 1017.9 |
| 20260502193014 | 76 | 13 | 0.0 | 0.0 | 0.00 | 0.69 | 0.00 | 45 | 1018.2 |
| 20260502191511 | 75 | 54 | 0.0 | 0.0 | 0.00 | 0.69 | 0.00 | 46 | 1018.3 |
| 20260502190011 | 75 | 16 | 0.0 | 0.0 | 0.00 | 0.69 | 0.00 | 45 | 1018.4 |
| 20260502184511 | 74 | 63 | 0.0 | 0.0 | 0.00 | 0.81 | 0.00 | 47 | 1018.5 |
| 20260502183007 | 74 | 13 | 0.0 | 0.0 | 0.00 | 0.81 | 0.00 | 49 | 1018.9 |
| 20260502181505 | 74 | 325 | 0.0 | 0.0 | 0.00 | 0.81 | 0.00 | 47 | 1019.0 |
| 20260502163055 | 70 | 11 | 0.0 | 0.0 | 0.00 | 1.07 | 0.00 | 58 | 1019.6 |
| 20260502161553 | 69 | 19 | 0.0 | 0.0 | 0.00 | 1.07 | 0.00 | 60 | 1019.6 |
| 20260502151534 | 64 | 5 | 0.0 | 0.0 | 0.00 | 1.14 | 0.00 | 71 | 1019.3 |
| 20260502123004 | 53 | 26 | 0.0 | 0.0 | 0.00 | 1.79 | 0.00 | 93 | 1017.6 |
| 20260502121503 | 53 | 355 | 0.0 | 0.0 | 0.00 | 1.79 | 0.00 | 94 | 1017.5 |
| 20260502114603 | 53 | 11 | 0.0 | 0.0 | 0.00 | 2.13 | 0.00 | 93 | 1016.9 |
| 20260502113058 | 53 | 11 | 0.0 | 0.0 | 0.00 | 2.13 | 0.00 | 93 | 1016.9 |
| 20260502111601 | 53 | 24 | 0.0 | 0.0 | 0.00 | 2.13 | 0.00 | 92 | 1016.8 |
| 20260502110056 | 53 | 22 | 0.0 | 0.0 | 0.00 | 2.13 | 0.00 | 92 | 1016.7 |
| 20260502104554 | 54 | 9 | 0.0 | 0.0 | 0.00 | 2.37 | 0.00 | 91 | 1016.6 |
| 20260502103051 | 54 | 30 | 0.0 | 0.0 | 0.00 | 2.37 | 0.00 | 91 | 1016.4 |
| 20260502101553 | 54 | 13 | 0.0 | 0.0 | 0.00 | 2.37 | 0.00 | 91 | 1016.3 |
| 20260502100109 | 54 | 36 | 0.0 | 0.0 | 0.00 | 2.37 | 0.00 | 91 | 1015.9 |
| 20260502070033 | 56 | 22 | 0.0 | 0.0 | 0.00 | 3.84 | 0.00 | 90 | 1015.0 |
| 20260502064527 | 56 | 51 | 0.0 | 0.0 | 0.00 | 3.85 | 0.00 | 91 | 1014.7 |
| 20260502063026 | 56 | 59 | 0.0 | 0.0 | 0.00 | 3.85 | 0.00 | 91 | 1014.6 |
| 20260502061525 | 56 | 61 | 0.0 | 0.0 | 0.00 | 3.85 | 0.00 | 91 | 1014.6 |
| 20260502060023 | 56 | 41 | 0.0 | 0.0 | 0.00 | 3.85 | 0.00 | 91 | 1014.5 |
| 20260502054522 | 56 | 5 | 0.0 | 0.0 | 0.00 | 4.05 | 0.00 | 92 | 1014.5 |
| 20260502053020 | 56 | 360 | 0.0 | 0.0 | 0.00 | 4.05 | 0.00 | 92 | 1014.5 |
| 20260502051532 | 56 | 40 | 0.0 | 0.0 | 0.00 | 4.05 | 0.00 | 92 | 1014.5 |
| 20260502050017 | 56 | 327 | 0.0 | 0.0 | 0.00 | 4.05 | 0.00 | 93 | 1014.3 |
| 20260502044516 | 56 | 13 | 0.0 | 0.0 | 0.00 | 4.34 | 4.05 | 93 | 1014.3 |
| 20260502043016 | 56 | 355 | 0.0 | 0.0 | 0.00 | 4.34 | 4.05 | 93 | 1014.2 |
| 20260502041515 | 56 | 11 | 0.0 | 0.0 | 0.00 | 4.34 | 4.05 | 94 | 1014.1 |
| 20260502040015 | 56 | 18 | 0.0 | 0.0 | 0.00 | 4.34 | 4.05 | 94 | 1014.5 |
| 20260502034519 | 56 | 15 | 0.0 | 0.0 | 0.00 | 4.34 | 4.05 | 94 | 1014.4 |
| 20260502033014 | 56 | 26 | 0.0 | 0.0 | 0.00 | 4.34 | 4.05 | 94 | 1014.1 |
| 20260502031510 | 56 | 322 | 0.0 | 0.0 | 0.01 | 4.34 | 4.05 | 94 | 1013.9 |
| 20260502030008 | 56 | 17 | 0.0 | 0.0 | 0.03 | 4.34 | 4.05 | 94 | 1013.5 |
| 20260502024504 | 56 | 22 | 0.0 | 0.0 | 0.05 | 4.34 | 4.05 | 95 | 1013.1 |
| 20260502023004 | 56 | 20 | 0.0 | 0.0 | 0.07 | 4.34 | 4.05 | 95 | 1012.6 |
| 20260502021502 | 57 | 13 | 0.0 | 0.0 | 0.12 | 4.33 | 4.04 | 95 | 1012.9 |
| 20260502020001 | 57 | 349 | 0.0 | 0.0 | 0.14 | 4.30 | 4.01 | 95 | 1012.5 |
| 20260502014559 | 57 | 44 | 0.0 | 0.0 | 0.12 | 4.29 | 4.00 | 95 | 1012.2 |
| 20260502013102 | 58 | 15 | 0.0 | 0.0 | 0.12 | 4.26 | 3.98 | 95 | 1011.9 |
| 20260502011557 | 59 | 296 | 0.0 | 0.0 | 0.06 | 4.21 | 3.92 | 95 | 1011.7 |
| 20260502010057 | 59 | 15 | 0.0 | 0.0 | 0.05 | 4.17 | 3.88 | 95 | 1012.2 |
| 20260502004552 | 59 | 319 | 0.0 | 0.0 | 0.11 | 4.17 | 3.88 | 95 | 1010.9 |
| 20260502003052 | 59 | 19 | 0.0 | 0.0 | 0.11 | 4.15 | 3.86 | 95 | 1010.3 |
| 20260502001551 | 59 | 17 | 0.0 | 0.0 | 0.12 | 4.15 | 3.86 | 95 | 1011.5 |
| 20260502000050 | 59 | 29 | 0.0 | 0.0 | 0.19 | 4.12 | 3.83 | 95 | 1011.1 |
| 20260501234555 | 59 | 21 | 0.0 | 0.0 | 0.17 | 4.05 | 3.77 | 95 | 1010.9 |
| 20260501233049 | 59 | 34 | 0.0 | 0.0 | 0.15 | 4.04 | 3.75 | 95 | 1010.3 |
| 20260501231556 | 60 | 15 | 0.0 | 0.0 | 0.14 | 4.03 | 3.74 | 95 | 1009.4 |
| 20260501230046 | 60 | 23 | 0.0 | 0.0 | 0.04 | 3.93 | 3.64 | 95 | 1010.4 |
| 20260501224544 | 60 | 44 | 0.0 | 0.0 | 0.01 | 3.89 | 3.60 | 95 | 1008.8 |
| 20260501223044 | 60 | 86 | 0.0 | 0.0 | 0.03 | 3.89 | 3.60 | 95 | 1008.3 |
| 20260501221542 | 61 | 41 | 0.0 | 0.0 | 0.05 | 3.89 | 3.60 | 95 | 1008.5 |
| 20260501220043 | 61 | 360 | 0.0 | 0.0 | 0.06 | 3.89 | 3.60 | 95 | 1009.1 |
| 20260501214554 | 61 | 20 | 0.0 | 0.0 | 0.07 | 3.88 | 3.59 | 95 | 1010.0 |
| 20260501213048 | 61 | 355 | 0.0 | 0.0 | 0.09 | 3.86 | 3.57 | 95 | 1010.0 |
| 20260501211539 | 62 | 16 | 0.0 | 0.0 | 0.10 | 3.84 | 3.55 | 95 | 1009.6 |